This demonstration page uses our WeatherBlox Daily Observations layout. Learn more.

Left ArrowRight Arrow

Hourly Observations for May 22, 2018

Temp ( °F °C ) Dew Point ( °F °C ) Humidity (%) Winds ( mph kmh ) Pressure ( in mb ) Visibility ( mi km ) Precip ( " mm )
12:08 am 00:08 Partly Cloudy 69 20.6 68 20 96 96 Calm 30.06 1018 10 16 0.00 0.00
12:53 am 00:53 Cloudy 69 20.6 68 20 96 96 Calm 30.04 1017 10 16 0.00 0.03
1:53 am 01:53 Cloudy 69 20.6 68 20 96 96 VRB 3 6 30.02 1017 10 16 0.00 0.00
2:53 am 02:53 Cloudy 69 20.6 68 20 96 96 Calm 30.00 1016 10 16 0.06 1.52
3:06 am 03:06 Cloudy 69 20.6 68 20 96 96 Calm 30.03 1017 10 16 0.00 0.00
3:16 am 03:16 Cloudy 69 20.6 68 20 96 96 S 3 6 30.03 1017 10 16 0.00 0.00
3:53 am 03:53 Cloudy 68 20 68 20 100 100 Calm 30.01 1016 8 13 0.00 0.00
4:10 am 04:10 Cloudy 68 20 68 20 100 100 Calm 30.03 1017 8 13 0.00 0.00
4:25 am 04:25 Cloudy 68 20 68 20 100 100 SSW 3 6 30.03 1017 9 14 0.00 0.00
4:53 am 04:53 Cloudy 68 20 68 20 100 100 Calm 30.01 1016 10 16 0.00 0.00
5:02 am 05:02 Cloudy 68 20 68 20 100 100 Calm 30.03 1017 9 14 0.00 0.00
5:19 am 05:19 Cloudy 68 20 68 20 100 100 Calm 30.03 1017 10 16 0.00 0.00
5:53 am 05:53 Cloudy 68 20 68 20 100 100 Calm 30.01 1016 8 13 0.00 0.00
6:53 am 06:53 Cloudy with Mist and Fog 68 20 68 20 100 100 Calm 30.03 1017 6 10 0.00 0.00
7:53 am 07:53 Cloudy 70 21.1 69 20.6 97 97 Calm 30.04 1017 10 16 0.00 0.00
8:16 am 08:16 Cloudy 70 21.1 68 20 93 93 Calm 30.06 1018 9 14 0.00 0.00
8:29 am 08:29 Cloudy 70 21.1 69 20.6 97 97 Calm 30.06 1018 10 16 0.00 0.00
8:53 am 08:53 Cloudy 70 21.1 69 20.6 97 97 Calm 30.05 1018 10 16 0.00 0.00
9:23 am 09:23 Mostly Cloudy 72 22.2 69 20.6 91 91 Calm 30.06 1018 10 16 0.00 0.00
9:53 am 09:53 Cloudy 72 22.2 70 21.1 94 94 VRB 3 6 30.06 1018 10 16 0.00 0.00
10:41 am 10:41 Mostly Cloudy 75 23.9 70 21.1 84 84 VRB 3 6 30.06 1018 10 16 0.00 0.00
10:53 am 10:53 Cloudy 76 24.4 71 21.7 85 85 VRB 3 6 30.05 1018 10 16 0.00 0.00
11:53 am 11:53 Mostly Cloudy 78 25.6 71 21.7 79 79 WSW 5 7 30.04 1017 10 16 0.00 0.00
12:40 pm 12:40 Mostly Cloudy 80 26.7 70 21.1 71 71 WSW 7 11 30.06 1018 10 16 0.00 0.00
12:47 pm 12:47 Mostly Cloudy with Nearby Thunderstorms 81 27 70 21 70 70 SSW 8 13 30.06 1018 10 16 0.00 0.00
12:48 pm 12:48 Mostly Cloudy with Nearby Thunderstorms 79 26.1 70 21.1 74 74 SW 8 13 30.03 1017 10 16 0.00 0.00
1:01 pm 13:01 Partly Cloudy with Thunderstorms 81 27.2 70 21.1 69 69 WSW 8 13 30.00 1016 10 16 0.00 0.00
1:18 pm 13:18 Partly Cloudy with Nearby Thunderstorms 80 26.7 70 21.1 71 71 VRB 7 11 30.03 1017 10 16 0.00 0.00
1:43 pm 13:43 Mostly Cloudy 80 26.7 70 21.1 71 71 WSW 9 15 30.03 1017 10 16 0.00 0.00
1:53 pm 13:53 Partly Cloudy 81 27.2 70 21.1 69 69 SW 9 15 30.01 1016 10 16 0.00 0.00
2:53 pm 14:53 Mostly Sunny 83 28.3 70 21.1 65 65 SW 8 13 29.98 1015 10 16 0.00 0.00
3:53 pm 15:53 Partly Cloudy 84 28.9 70 21.1 63 63 SW 8 13 29.96 1015 10 16 0.00 0.00
4:53 pm 16:53 Partly Cloudy 84 28.9 68 20 59 59 WSW 7 11 29.94 1014 10 16 0.00 0.00
5:53 pm 17:53 Partly Cloudy 83 28.3 69 20.6 63 63 NW 12 19 29.94 1014 10 16 0.00 0.00
6:53 pm 18:53 Sunny 83 28.3 68 20 61 61 W 9 15 29.93 1014 10 16 0.00 0.00
7:53 pm 19:53 Mostly Cloudy 80 26.7 69 20.6 69 69 W 6 9 29.95 1014 10 16 0.00 0.00
8:53 pm 20:53 Mostly Cloudy 78 25.6 67 19.4 69 69 N 6 9 29.96 1015 10 16 0.00 0.00
9:53 pm 21:53 Cloudy 76 24.4 65 18.3 69 69 NNW 3 6 29.99 1016 10 16 0.00 0.00
10:53 pm 22:53 Clear 74 23.3 64 17.8 71 71 N 8 13 30.01 1016 10 16 0.00 0.00
11:53 pm 23:53 Clear 71 21.7 62 16.7 73 73 VRB 3 6 30.03 1017 10 16 0.00 0.00

Powered by AerisWeather